Home > Weather > Hadera > Past weeks

Flag for Israel Weather for the Past 2 Weeks in Hadera, Israel

Now
75 °F

Passing clouds.


Feels Like: 78 °F
Forecast: 66 / 71 °F
Wind: 10 mph from West

Location: Dov Airport

Current Time: May 5, 2016 at 2:30:31 PM

Latest Report: May 5, 2016 at 1:50 PM


Visibility: N/A

Pressure: 29.89 "Hg

Humidity: 47%

Dew Point: 54 °F

Location of HaderaLocation

Historic Weather in Hadera — Graph

°F

Hadera Temperature Yesterday

Maximum temperature yesterday: 73 °F (at 9:50 AM)
Minimum temperature yesterday: 68 °F (at 9:50 PM)
Average temperature yesterday: 71 °F

High & Low Weather Summary for the Past Weeks

 TemperatureHumidityPressure
High95 °F (Apr 26, 10:50 AM)94% (Apr 23, 6:00 AM)30.04 "Hg (Apr 23, 6:00 AM)
Low61 °F (Apr 30, 6:00 AM)16% (Apr 26, 10:50 AM)29.56 "Hg (Apr 25, 5:00 AM)
Average73 °F66%29.87 "Hg
* Reported Apr 20 12:50 PM — May 5 12:50 PM, Hadera, Weather by CustomWeather, © 2016

Note: Actual official high and low records may vary slightly from our data, if they occured in-between our weather recording intervals... More about our weather records

Advertising

Hadera Weather History for the Previous 24 Hours

Scroll right to see more
 ConditionsComfort  
Time TempWeatherWind HumidityBarometerVisibility
12:50 PM
Thu, May 5
75 °FPassing clouds.14 mph50%29.92 "HgN/A
11:50 AM75 °FPassing clouds.14 mph50%29.92 "HgN/A
10:50 AM73 °FPassing clouds.10 mph50%29.92 "HgN/A
9:50 AM73 °FPassing clouds.10 mph50%29.92 "HgN/A
8:50 AM72 °FPassing clouds.8 mph53%29.92 "HgN/A
7:50 AM68 °FPassing clouds.7 mph64%29.92 "HgN/A
6:50 AM66 °FScattered clouds.6 mph68%29.92 "HgN/A
5:50 AM64 °FPassing clouds.7 mph73%29.92 "HgN/A
4:50 AM64 °FPassing clouds.5 mph73%29.89 "HgN/A
10:50 PM
Wed, May 4
68 °FClear.1 mph69%29.98 "Hg10 mi
9:50 PM68 °FClear.3 mph69%29.95 "Hg10 mi
8:50 PM70 °FPassing clouds.5 mph64%29.95 "HgN/A
7:50 PM70 °FSunny.7 mph64%29.98 "Hg10 mi
6:50 PM70 °FPassing clouds.10 mph64%29.98 "HgN/A
5:50 PM72 °FScattered clouds.8 mph61%29.98 "HgN/A
4:50 PM72 °FScattered clouds.12 mph57%29.95 "HgN/A
3:50 PM73 °FScattered clouds.12 mph57%29.95 "HgN/A
2:50 PM73 °FScattered clouds.14 mph57%29.95 "HgN/A
Weather by CustomWeather, © 2016

See weather overviewHow to use our weather pages